Regional Weather Roundup
Issued by NWS Charleston, WV

Home | Current Version | Previous Version | Text Only | Print | Product List | Glossary Off
Versions: 1 2 3 4 5 6 7 8 9 10 11 12 13 14 15 16 17 18 19 20 21 22 23 24 25 26 27 28 29 30 31 32 33 34 35 36 37 38 39 40 41 42 43 44 45 46 47 48 49 50

403
ASUS41 KRLX 150610
RWRRLX
West Virginia Regional Weather Roundup
National Weather Service Charleston WV
100 AM EST FRI DEC 15 2017

Note: "fair" indicates few or no clouds below 12,000 feet with no
significant weather and/or obstructions to visibility.

WVZ003-150700-
Northern Panhandle of West Virginia

CITY           SKY/WX    TMP DP  RH WIND       PRES   REMARKS
WHEELING       CLOUDY    17  14  88 CALM      30.02F
$$

WVZ009-150700-
Northwest West Virginia

CITY           SKY/WX    TMP DP  RH WIND       PRES   REMARKS
PARKERSBURG    CLOUDY    23  16  74 CALM      30.07F
$$

WVZ006-150700-
Western West Virginia

CITY           SKY/WX    TMP DP  RH WIND       PRES   REMARKS
HUNTINGTON     CLOUDY    27  17  66 CALM      30.06S
$$

WVZ015-150700-
West Central West Virginia

CITY           SKY/WX    TMP DP  RH WIND       PRES   REMARKS
CHARLESTON     CLOUDY    28  18  66 N3        30.03F
$$

WVZ022-031-150700-
North Central West Virginia

CITY           SKY/WX    TMP DP  RH WIND       PRES   REMARKS
CLARKSBURG     CLOUDY    27  21  78 CALM      30.02F
MORGANTOWN     CLOUDY    25  16  68 CALM      30.03F
$$

WVZ025-035-042-045-150700-
Southern West Virginia

CITY           SKY/WX    TMP DP  RH WIND       PRES   REMARKS
BECKLEY        CLOUDY    27  20  75 CALM      29.94S
LOGAN          CLOUDY    30  21  69 CALM      29.99S
BLUEFIELD      CLOUDY    23  19  85 CALM      29.93F
LEWISBURG      CLOUDY    27  21  77 CALM      29.96S
$$

WVZ047-150700-
Northern Mountains of West Virginia

CITY           SKY/WX    TMP DP  RH WIND       PRES   REMARKS
ELKINS         CLOUDY    25  20  81 CALM      29.97F
$$

WVZ052-150700-
Eastern Panhandle of West Virginia

CITY           SKY/WX    TMP DP  RH WIND       PRES   REMARKS
MARTINSBURG    CLOUDY    25  11  55 CALM      30.07F
PETERSBURG     CLOUDY    27  19  71 SE3       30.04S
$$




USA.gov is the U.S. government's official web portal to all federal, state and local government web resources and services.